[[{"header":{"parameterUnit":"m.s-1","parameterCategory":1,"la1":30.2991,"la2":30.254,"lo1":-89.0895,"lo2":-89.0444,"dy":0.0017,"dx":0.0017,"nx":28,"ny":28,"refTime":"2024-03-25T21:00:00:Z","depth":0,"parameterNumber":2,"parameterNumberName":"U-component_of_WINDS"},"data":[0,0,0,0,0,0,0,0,0,0,0,0,0,0,0,0,0,0,0,0,0,0,0,0,0,0,0,0,0,0,0,0,0,0,0,0,0,0,0,0,0,0,0,0,0,0,0,0,0,0,0,0,0,0,0,0,0,0,-0.9366,-0.9366,0,-0.9361,-0.9361,-0.9361,-0.9349,-0.9349,-0.9348,-0.9348,-0.9345,-0.9345,-0.9346,0,0,0,0,0,0,0,0,0,0,0,0,0,-0.9367,-0.9367,-0.9366,-0.9366,-0.9366,-0.9361,-0.9361,-0.9361,-0.9349,-0.9349,-0.9348,-0.9348,-0.9345,-0.9345,-0.9346,0,0,0,0,0,0,0,0,0,0,0,0,0,-0.9365,-0.9367,-0.9366,-0.9359,-0.9359,-0.9361,-0.9361,-0.9361,-0.9349,-0.9349,-0.9348,-0.9348,-0.9345,-0.9345,-0.9346,-0.9355,0,0,-0.9346,-0.9347,0,0,0,0,0,0,0,0,-0.9365,-0.9365,-0.936,-0.936,-0.9359,-0.9355,-0.9361,-0.9359,-0.9349,-0.9353,-0.9348,-0.9348,-0.9349,-0.9349,-0.9349,-0.9355,-0.9355,-0.9346,-0.9347,-0.9347,-0.9347,0,0,0,0,0,0,0,-0.9365,-0.9365,-0.9364,-0.936,-0.936,-0.9357,-0.9356,-0.936,-0.9353,-0.9352,-0.9351,-0.9351,-0.9349,-0.9349,-0.9349,-0.9355,-0.9346,-0.9347,-0.9347,-0.9347,-0.9371,-0.9371,0,0,0,0,0,0,-0.9366,-0.9365,-0.9365,-0.9364,-0.9361,-0.9358,-0.9357,-0.9357,-0.9353,-0.9352,-0.9351,-0.935,-0.9349,-0.9349,-0.9349,-0.9361,-0.9347,-0.9347,-0.9347,-0.937,-0.9371,-0.9372,0,0,0,0,0,0,-0.9366,-0.9366,-0.9365,-0.9364,-0.9364,-0.9358,-0.9358,-0.9357,-0.9357,-0.9352,-0.9351,-0.9353,-0.9348,-0.9348,-0.9354,-0.9361,-0.9347,-0.9347,-0.937,-0.9371,-0.9371,-0.9386,0,0,0,0,0,0,-0.9366,-0.9366,-0.9369,-0.9365,-0.9364,-0.9369,-0.9359,-0.9357,-0.9358,-0.9356,-0.9353,-0.9353,-0.9348,-0.9354,-0.9354,-0.9361,-0.9348,-0.9369,-0.937,-0.9371,-0.9385,-0.9387,-0.9389,0,0,0,0,0,-0.9366,-0.9373,-0.9369,-0.9369,-0.9368,-0.937,-0.937,-0.9364,-0.9358,-0.9362,-0.9359,-0.9353,-0.936,-0.9354,-0.9355,-0.9362,-0.9369,-0.937,-0.9371,-0.9384,-0.9386,-0.9389,0,0,0,0,0,0,-0.9379,-0.9373,-0.9368,-0.9374,-0.9372,-0.9368,-0.9372,-0.9366,-0.9367,-0.9366,-0.9359,-0.9359,-0.9366,-0.9364,-0.9358,-0.9372,-0.9363,-0.9365,-0.9373,-0.9375,-0.9377,-0.9378,-0.9348,0,0,0,0,0,-0.9383,-0.9384,-0.9379,-0.9384,-0.9384,-0.9378,-0.9379,-0.9374,-0.9373,-0.9372,-0.937,-0.9369,-0.9372,-0.9373,-0.9375,-0.9384,-0.9384,-0.9389,-0.9391,-0.9393,-0.9394,-0.9401,-0.9404,-0.9375,-0.9375,-0.9375,0,0,-0.939,-0.9387,-0.9388,-0.9387,-0.9385,-0.9388,-0.9378,-0.9381,-0.9383,-0.9373,-0.9378,-0.9377,-0.9376,-0.9384,-0.9387,-0.9383,-0.9402,-0.9394,-0.9396,-0.9396,-0.9402,-0.9405,-0.9407,-0.9376,-0.9376,-0.9376,0,0,-0.9405,-0.9402,-0.9407,-0.9406,-0.9404,-0.94,-0.9401,-0.9397,-0.9396,-0.9401,-0.9394,-0.9397,-0.94,-0.9401,-0.9401,-0.9417,-0.9412,-0.9418,-0.9429,-0.9436,-0.9438,-0.944,-0.9447,-0.945,-0.9419,-0.9419,-0.9419,0,-0.9415,-0.9418,-0.9411,-0.9415,-0.9415,-0.9405,-0.9411,-0.9411,-0.9409,-0.941,-0.9405,-0.941,-0.9409,-0.9418,-0.9422,-0.9422,-0.9424,-0.9419,-0.9438,-0.944,-0.9442,-0.9449,-0.9451,-0.942,-0.942,-0.942,-0.942,0,-0.9431,-0.9434,-0.9438,-0.9437,-0.9438,-0.9442,-0.9437,-0.9438,-0.9434,-0.9431,-0.9438,-0.9436,-0.9438,-0.9439,-0.9435,-0.9448,-0.9445,-0.9439,-0.9431,-0.9445,-0.9452,-0.9455,-0.9421,-0.9421,-0.9421,-0.9421,0,0,-0.9455,-0.945,-0.9451,-0.9451,-0.9448,-0.9451,-0.9456,-0.9457,-0.9459,-0.9459,-0.9464,-0.9468,-0.9462,-0.9463,-0.9459,-0.9464,-0.9479,-0.9458,-0.9458,-0.9463,-0.9496,-0.9501,-0.9504,-0.9476,-0.9476,-0.9476,-0.9496,0,-0.947,-0.9478,-0.9472,-0.9481,-0.9484,-0.9475,-0.948,-0.9479,-0.9477,-0.948,-0.9478,-0.9481,-0.9473,-0.9473,-0.9478,-0.9477,-0.9486,-0.9475,-0.9482,-0.9482,-0.9484,-0.9507,-0.9513,-0.9532,-0.9499,-0.9499,-0.9499,0,-0.9489,-0.949,-0.9499,-0.9497,-0.9498,-0.9502,-0.9504,-0.9506,-0.9506,-0.9504,-0.9505,-0.9499,-0.9506,-0.9496,-0.9506,-0.9498,-0.9501,-0.95,-0.9501,-0.9503,-0.9493,-0.9511,-0.9537,-0.9541,-0.9503,-0.9503,-0.9502,0,-0.9507,-0.951,-0.9517,-0.9517,-0.9513,-0.9517,-0.9516,-0.9515,-0.9517,-0.9518,-0.952,-0.9522,-0.9524,-0.9526,-0.9522,-0.9516,-0.9533,-0.9523,-0.9533,-0.9533,-0.9538,-0.9538,-0.9567,-0.9537,-0.9537,-0.9537,-0.9537,0,-0.9526,-0.9533,-0.9525,-0.9529,-0.9537,-0.953,-0.9538,-0.9536,-0.9536,-0.954,-0.9533,-0.9537,-0.9531,-0.9536,-0.9533,-0.9542,-0.9542,-0.9542,-0.9542,-0.9544,-0.9544,-0.9546,-0.9546,-0.9538,-0.9538,-0.9537,-0.9537,0,-0.9548,-0.9543,-0.955,-0.9546,-0.9545,-0.9551,-0.9549,-0.9554,-0.9551,-0.9557,-0.9558,-0.9554,-0.9559,-0.9555,-0.956,-0.9558,-0.9571,-0.9567,-0.9571,-0.9571,-0.9581,-0.9581,-0.9614,-0.9619,-0.9584,-0.9585,-0.9585,0,-0.9561,-0.9566,-0.9563,-0.9565,-0.9565,-0.9568,-0.957,-0.9564,-0.9566,-0.9567,-0.9572,-0.9576,-0.9579,-0.9588,-0.9586,-0.9591,-0.9589,-0.96,-0.9589,-0.9592,-0.9591,-0.9591,-0.9593,-0.9602,-0.9603,-0.9603,-0.9603,0,-0.9585,-0.9582,-0.9585,-0.9587,-0.9589,-0.959,-0.9591,-0.9594,-0.9588,-0.9591,-0.9596,-0.9598,-0.9604,-0.9609,-0.9613,-0.9613,-0.9608,-0.9606,-0.9609,-0.9612,-0.9615,-0.9615,-0.9578,-0.9606,-0.9606,-0.9605,-0.9605,-0.9605,-0.9604,-0.9609,-0.9608,-0.9611,-0.9611,-0.9612,-0.9617,-0.9614,-0.9618,-0.9622,-0.9618,-0.9625,-0.9626,-0.963,-0.9631,-0.9637,-0.9632,-0.9636,-0.9637,-0.9639,-0.9641,-0.9612,-0.9637,-0.9637,-0.9637,-0.9637,-0.9637,0,-0.9629,-0.9628,-0.9631,-0.9633,-0.9636,-0.963,-0.9631,-0.9634,-0.964,-0.9641,-0.9644,-0.9651,-0.9656,-0.9655,-0.966,-0.9665,-0.9663,-0.9667,-0.9667,-0.9668,-0.9644,-0.9642,-0.9668,-0.9668,-0.9668,-0.9668,-0.9668,-0.9668,-0.9643,-0.9651,-0.9648,-0.9657,-0.9656,-0.9662,-0.9663,-0.9665,-0.9666,-0.9673,-0.9677,-0.9676,-0.9677,-0.9682,-0.9687,-0.9687,-0.969,-0.9695,-0.9694,-0.9672,-0.9669,-0.9666,-0.9664,-0.9695,-0.9695,-0.9718,-0.9718,-0.9718]},{"header":{"parameterUnit":"m.s-1","parameterCategory":1,"la1":30.2991,"la2":30.254,"lo1":-89.0895,"lo2":-89.0444,"dy":0.0017,"dx":0.0017,"nx":28,"ny":28,"refTime":"2024-03-25T21:00:00:Z","depth":0,"parameterNumber":3,"parameterNumberName":"V-component_of_WINDS"},"data":[0,0,0,0,0,0,0,0,0,0,0,0,0,0,0,0,0,0,0,0,0,0,0,0,0,0,0,0,0,0,0,0,0,0,0,0,0,0,0,0,0,0,0,0,0,0,0,0,0,0,0,0,0,0,0,0,0,0,0.5737,0.5736,0,0.5645,0.5643,0.5642,0.5601,0.5601,0.5601,0.5601,0.5503,0.55,0.5498,0,0,0,0,0,0,0,0,0,0,0,0,0,0.5873,0.5871,0.5737,0.5736,0.5734,0.5645,0.5643,0.5642,0.5601,0.5601,0.5601,0.5601,0.5504,0.5501,0.5497,0,0,0,0,0,0,0,0,0,0,0,0,0,0.5801,0.587,0.5737,0.5703,0.5699,0.5645,0.5643,0.5642,0.5601,0.5601,0.5601,0.5602,0.5505,0.5501,0.5497,0.5468,0,0,0.5484,0.5483,0,0,0,0,0,0,0,0,0.5805,0.5796,0.5709,0.5705,0.5701,0.5635,0.5655,0.5583,0.5601,0.5638,0.5601,0.5602,0.5546,0.5539,0.5521,0.5463,0.5459,0.5484,0.5482,0.548,0.5479,0,0,0,0,0,0,0,0.581,0.5799,0.57,0.5708,0.5703,0.5691,0.5681,0.5642,0.5592,0.5635,0.5632,0.5622,0.5544,0.5525,0.5518,0.5458,0.5484,0.5481,0.5478,0.5476,0.5371,0.5371,0,0,0,0,0,0,0.5821,0.5804,0.5703,0.5697,0.5755,0.5689,0.5678,0.5656,0.5593,0.5583,0.5622,0.562,0.5532,0.5523,0.5515,0.5476,0.548,0.5476,0.5474,0.5371,0.5371,0.5371,0,0,0,0,0,0,0.5824,0.5812,0.5707,0.575,0.5735,0.5686,0.5662,0.5654,0.5635,0.5583,0.5573,0.5612,0.5532,0.5521,0.548,0.5472,0.5474,0.547,0.5372,0.5371,0.5371,0.54,0,0,0,0,0,0,0.5828,0.5814,0.5803,0.575,0.5733,0.5675,0.5662,0.5652,0.5628,0.5625,0.5571,0.5562,0.5531,0.5487,0.5476,0.5467,0.5467,0.5372,0.5372,0.5371,0.5399,0.54,0.5401,0,0,0,0,0,0.5833,0.5814,0.5803,0.5791,0.5719,0.5675,0.5665,0.5631,0.5628,0.5616,0.5583,0.5563,0.5475,0.5483,0.5471,0.546,0.5373,0.5372,0.5371,0.5399,0.54,0.5401,0,0,0,0,0,0,0.5867,0.5807,0.5793,0.5757,0.5721,0.5668,0.5652,0.5634,0.5597,0.5596,0.5555,0.5543,0.5506,0.5479,0.5488,0.5428,0.5422,0.5419,0.5447,0.5448,0.5449,0.5456,0.5464,0,0,0,0,0,0.587,0.584,0.5789,0.5761,0.5744,0.5702,0.5681,0.5658,0.5619,0.5603,0.5567,0.5528,0.5492,0.5469,0.5432,0.5395,0.5382,0.5382,0.5383,0.5384,0.5382,0.5359,0.5359,0.5368,0.5368,0.5368,0,0,0.5876,0.584,0.5823,0.5767,0.5737,0.5706,0.5689,0.5656,0.5632,0.5598,0.5558,0.553,0.5484,0.5445,0.5426,0.5422,0.5376,0.5383,0.5384,0.5381,0.5359,0.5358,0.5357,0.5368,0.5368,0.5368,0,0,0.5871,0.5841,0.5815,0.5785,0.574,0.5712,0.5706,0.5655,0.5635,0.5595,0.5568,0.5538,0.5476,0.5445,0.5421,0.5404,0.5385,0.5393,0.5398,0.5377,0.5376,0.5375,0.5369,0.5367,0.5391,0.5391,0.5391,0,0.5884,0.5837,0.5803,0.5773,0.5748,0.5717,0.5689,0.5662,0.5607,0.559,0.5586,0.5508,0.5475,0.5428,0.5424,0.5406,0.5397,0.5399,0.5379,0.5378,0.5377,0.537,0.5368,0.5392,0.5392,0.5392,0.5392,0,0.5855,0.5823,0.5807,0.5756,0.573,0.5701,0.5661,0.5639,0.5618,0.559,0.5549,0.5508,0.5463,0.545,0.5429,0.54,0.5399,0.5388,0.538,0.5378,0.5371,0.5368,0.5394,0.5394,0.5394,0.5393,0,0,0.5868,0.5799,0.5794,0.577,0.5718,0.5692,0.5661,0.5618,0.5599,0.5562,0.5534,0.5483,0.5473,0.5445,0.5421,0.5402,0.5391,0.5393,0.5392,0.5394,0.5355,0.5364,0.5361,0.5378,0.5378,0.5377,0.5359,0,0.5856,0.5801,0.5769,0.5726,0.5695,0.5665,0.5638,0.5603,0.5575,0.5544,0.5513,0.5478,0.5467,0.545,0.5431,0.5397,0.5383,0.5398,0.5351,0.535,0.5363,0.5358,0.5366,0.5351,0.5356,0.5356,0.5355,0,0.5834,0.5799,0.5753,0.5705,0.569,0.5667,0.5625,0.5596,0.5554,0.5536,0.5506,0.5481,0.5446,0.5442,0.5393,0.5404,0.5383,0.5363,0.5362,0.5355,0.5352,0.535,0.5345,0.5343,0.5351,0.5351,0.5351,0,0.5847,0.5789,0.5753,0.5734,0.5677,0.5661,0.5636,0.5595,0.5571,0.5534,0.5518,0.5476,0.5454,0.5422,0.5386,0.5387,0.534,0.5333,0.5322,0.5323,0.5313,0.5314,0.5304,0.5301,0.5301,0.5301,0.5301,0,0.5836,0.581,0.5759,0.5737,0.5706,0.567,0.5639,0.5611,0.5575,0.5547,0.5518,0.5492,0.5447,0.5415,0.5387,0.535,0.534,0.5323,0.5315,0.5325,0.5327,0.531,0.531,0.5301,0.5301,0.5301,0.5301,0,0.5846,0.5811,0.5771,0.572,0.5707,0.5686,0.5641,0.5619,0.559,0.5555,0.5544,0.5499,0.5459,0.5421,0.5368,0.5349,0.5312,0.5303,0.5326,0.5322,0.5313,0.5314,0.5291,0.5285,0.5287,0.5287,0.5287,0,0.5841,0.582,0.5767,0.5747,0.5723,0.569,0.5666,0.5629,0.5604,0.5556,0.5539,0.5498,0.5463,0.5401,0.5362,0.5321,0.531,0.5305,0.5304,0.5314,0.5309,0.5311,0.5308,0.5306,0.5306,0.5306,0.5306,0,0.5836,0.582,0.5786,0.5747,0.5719,0.5686,0.5652,0.5637,0.5593,0.5567,0.5527,0.55,0.5446,0.5405,0.536,0.5332,0.5311,0.5307,0.5302,0.5311,0.5325,0.5317,0.5328,0.5307,0.5307,0.5307,0.5307,0.5307,0.5837,0.5817,0.5776,0.574,0.5711,0.568,0.5656,0.5625,0.5591,0.5545,0.5525,0.5485,0.5443,0.538,0.5354,0.532,0.5315,0.5308,0.5306,0.5305,0.5307,0.5332,0.5312,0.5312,0.5312,0.5312,0.5312,0,0.583,0.5802,0.577,0.5723,0.5695,0.5679,0.564,0.5617,0.5582,0.5546,0.5512,0.5466,0.5426,0.5385,0.5342,0.5323,0.5313,0.5313,0.5314,0.5308,0.5314,0.5322,0.5323,0.5323,0.5323,0.5323,0.5323,0.5323,0.5822,0.5787,0.5766,0.5715,0.5687,0.5649,0.5628,0.5598,0.5569,0.5519,0.5486,0.546,0.5421,0.5376,0.5338,0.5327,0.5312,0.5315,0.5301,0.5308,0.5307,0.5307,0.5314,0.5313,0.5313,0.5297,0.5297,0.5297]}]]